Location: Newark
(13.8117°N, 3.6025°W)
Time: 08:05:22
(UTC+00:00)

Courier 1B - Visible Passes

Search period start: 19 August 2019 00:00
Search period end: 29 August 2019 00:00
Orbit: 962 x 1209 km, 28.3° (Epoch: 18 August)

Date Brightness Start Highest point End Pass type
(mag) Time Alt. Az. Time Alt. Az. Time Alt. Az.
19 Aug 9.6 04:37:05 12° SSW 04:37:05 12° SSW 04:38:34 10° S visible
19 Aug 9.3 19:57:47 10° WNW 20:02:53 24° N 20:07:57 10° NE visible
19 Aug 9.8 21:53:08 10° NW 21:54:51 16° NNW 21:54:51 16° NNW visible
20 Aug 9.2 19:03:22 10° WNW 19:08:50 27° NNW 19:14:12 10° NE visible
20 Aug 9.2 20:59:14 10° NW 21:04:06 22° N 21:04:21 22° N visible
21 Aug 9.3 20:05:09 10° NW 20:10:01 21° N 20:13:49 13° NE visible
21 Aug 10.0 21:59:39 10° NW 22:00:42 14° NW 22:00:42 14° NW visible
22 Aug 9.3 19:10:51 10° NW 19:15:55 22° N 19:20:52 10° NE visible
22 Aug 9.1 21:05:56 10° NW 21:10:10 24° N 21:10:10 24° N visible
23 Aug 9.1 20:12:05 10° NW 20:17:09 23° N 20:19:37 19° NE visible
23 Aug 10.1 22:05:58 10° NW 22:06:30 12° NW 22:06:30 12° NW visible
24 Aug 9.3 19:18:02 10° NW 19:23:03 22° N 19:27:58 10° NE visible
24 Aug 9.1 21:12:20 10° NW 21:15:58 27° NNW 21:15:58 27° NNW visible
25 Aug 8.7 20:18:36 10° NW 20:24:13 29° NNE 20:25:25 27° NNE visible
25 Aug 10.3 22:12:18 10° WNW 22:12:19 10° WNW 22:12:19 10° WNW visible
26 Aug 9.0 19:24:46 10° NW 19:30:11 25° N 19:34:54 12° ENE visible
26 Aug 9.1 21:18:37 10° NW 21:21:47 29° NW 21:21:47 29° NW visible
27 Aug 8.1 20:24:55 10° NW 20:31:06 41° NNE 20:31:18 41° NNE visible
28 Aug 8.6 19:31:09 10° NW 19:37:10 34° NNE 19:40:50 20° ENE visible
28 Aug 9.2 21:25:01 10° WNW 21:27:44 27° WNW 21:27:44 27° WNW visible
